AirNav   Everest Fuels
 
 1045 users online  

7PS2 Braehead Heliport
Willistown, Pennsylvania, USA

GOING TO WILLISTOWN?


FAA INFORMATION EFFECTIVE 18 JUNE 2020

Location

FAA Identifier: 7PS2
Lat/Long: 39-59-16.3920N 075-29-27.7280W
39-59.273200N 075-29.462133W
39.9878867,-75.4910356
(estimated)
Elevation: 500 ft. / 152 m (estimated)
Variation: 11W (1985)
From city: 4 miles W of WILLISTOWN, PA
Time zone: UTC -4 (UTC -5 during Standard Time)
Zip code: 19355

Heliport Operations

Heliport use: Private use. Permission required prior to landing
Activation date: 10/1987
Control tower: no
ARTCC: NEW YORK CENTER
FSS: WILLIAMSPORT FLIGHT SERVICE STATION
Attendance: UNATNDD
Segmented circle: no

Heliport Communications

WX AWOS-3T at OQN (4 nm W): 121.4 ((610) 692-6190)
WX ASOS at PHL (13 nm SE): PHONE 215-492-9617
WX AWOS-3 at LOM (14 nm NE): 118.925 (215-646-1068)
WX ASOS at PTW (15 nm N): 119.425 (610-495-0823)
WX AWOS-3 at MQS (17 nm W): 126.25 (610-384-6132)
WX ASOS at ILG (19 nm S): PHONE 302-328-1536

Nearby radio navigation aids

VOR radial/distance  VOR name  Freq  Var
MXEr072/9.3MODENA VORTAC113.2009W
PTWr176/14.4POTTSTOWN VORTAC116.5009W
DQOr026/19.3DUPONT VORTAC114.0010W
OODr348/22.8WOODSTOWN VORTAC112.8010W
ARDr249/31.1YARDLEY VOR/DME108.2010W
VCNr328/36.2CEDAR LAKE VOR/DME115.2010W
ETXr175/36.7EAST TEXAS VOR/DME110.2009W
LRPr111/37.6LANCASTER VOR/DME117.3009W

 
NDB name  Hdg/Dist  Freq  Var  ID
AMBLER241/12.627512WING .. -. --.
RAINBOW345/37.936311WRNB .-. -. -...

Heliport Services

Runway Information

Helipad H1

Dimensions: 85 x 85 ft. / 26 x 26 m
Surface: turf
Traffic pattern: leftleft

Heliport Ownership and Management from official FAA records

Ownership: Privately-owned
Owner: ROBERT MC CLEMENTS, JR.
773 SUGARTOWN ROAD
MALVERN, PA 19355
Phone 215-296-3560
Manager: ALBERT CIANDI JR
773 SUGARTOWN ROAD
MALVERN, PA 19355
Phone (215) 296-3560

Additional Remarks

FOR CD CTC PHILADELPHIA APCH AT 800-354-9884.

Instrument Procedures

There are no published instrument procedures at 7PS2.

Some nearby airports with instrument procedures:

KOQN - Brandywine Regional Airport (4 nm W)
N10 - Perkiomen Valley Airport (13 nm N)
KPHL - Philadelphia International Airport (13 nm SE)
KLOM - Wings Field Airport (14 nm NE)
KPTW - Heritage Field Airport (15 nm N)
7N7 - Spitfire Aerodrome (16 nm S)
N57 - New Garden Airport (16 nm SW)
KMQS - Chester County G O Carlson Airport (17 nm W)
N47 - Pottstown Municipal Airport (18 nm NW)
KILG - New Castle Airport (19 nm S)
 
Loc | Ops | Rwys | IFR | FBO | Links
Com | Nav | Svcs | Stats | Notes
Area around 7PS2 (Braehead Heliport)
 
Road maps at: MapQuest Bing Google
 
Aerial photo
No photo
 
Sectional chart

 
Airport distance calculator
Flying to Braehead Heliport? Find the distance to fly.

From to 7PS2

Sunrise and sunset
Times for 12-Jul-2020
 Local
(UTC-4)
 Zulu
(UTC)
Morning civil twilight05:1309:13
Sunrise05:4509:45
Sunset20:3000:30
Evening civil twilight21:0201:02

Current date and time
Zulu (UTC)  12-Jul-2020 18:30:28
Local (UTC-4)  12-Jul-2020 14:30:28
 
METAR
KOQN 
4nm W 
121815Z AUTO 22005KT 10SM SCT060 31/15 A2978 RMK AO2
KLOM 
14nm NE 
121815Z AUTO 21007KT 10SM SCT060 30/18 A2976 RMK AO2 P0001 T03040179
KPHL 
14nm SE 
121754Z 26010KT 10SM SCT070 32/16 A2976 RMK AO2 SLP076 T03170161 10317 20244 58010
KPTW 
15nm N 
121754Z AUTO 21007KT 8SM FEW055 SCT065 30/17 A2978 RMK AO2 SLP078 T03000167 10300 20228 58008
KMQS 
17nm W 
121815Z AUTO 25007KT 10SM FEW065 FEW075 FEW100 29/19 A2980 RMK AO2
KILG 
20nm S 
121751Z VRB06KT 10SM CLR 31/16 A2977 RMK AO2 SLP081 T03060161 10311 20239 58008
TAF
KPHL 
14nm SE 
121726Z 1218/1324 25010KT P6SM SCT050 BKN120 FM122200 24010KT P6SM VCSH BKN050 FM130000 23008KT P6SM -SHRA BKN045 FM130600 31004KT P6SM BKN060 FM131300 29008KT P6SM BKN200
KILG 
20nm S 
121726Z 1218/1318 23008KT P6SM SCT050 BKN120 FM122200 22008KT P6SM VCSH BKN050 FM130000 21005KT P6SM -SHRA BKN045 FM130500 VRB03KT P6SM BKN060 FM131200 31006KT P6SM BKN200
NOTAMs
Click for the latest NOTAMs
NOTAMs are issued by the DoD/FAA and will open in a separate window not controlled by AirNav.

 

 
 

Would you like to see your business listed on this page?

 If your business provides an interesting product or service to pilots, flight crews, aircraft, or users of the Braehead Heliport, you should consider listing it here.  To start the listing process, click on the button below
 
Add a business
 

Other Pages about Braehead Heliport

Update a link
 
Copyright © AirNav, LLC. All rights reserved. Privacy Policy  Contact